COSMOS 2522 (752)

Last updated on Tue Oct 14 2025 00:03:19 GMT+0000 (Coordinated Universal Time)

1 42939U 17055A 25286.29270510 -.00000014 00000+0 00000+0 0 9998 2 42939 64.0766 200.2866 0008192 235.0143 124.9435 2.13101923 62716
UTC large
Height (km)
Speed (km/s)
/
Latitude / Longitude
Inclination (degrees)
Orbital Period (minutes)
Azimuth
Elevation
Range (km)
Doppler Factor

Next 0 passes for location: London (51.5072 / 0.1276)

Sorry there are no passes over London.